Location: Unspecified
(0.0000°N, 0.0000°E)
Time: 18:14:39
(UTC+00:00)

MetOp-A - Pass Details

Date: 06 August 2021
Orbit: 819 x 821 km, 98.5° (Epoch: 26 September)

Event Time Altitude Azimuth Distance (km) Brightness Sun altitude
Exits shadow 20:32:41 38° 272° (W) 1,225 5.3 -35.0°
Drops below altitude 10° 20:37:07 10° 326° (NW) 2,408 7.1 -36.0°
Sets 20:39:36 0° 333° (NNW) 3,338 7.9 -36.6°
